Regional Weather Roundup
Issued by NWS

Home | Current Version | Previous Version | Graphics & Text | Print | Product List | Glossary On
Versions: 1 2 3 4 5 6 7 8 9 10 11 12 13 14 15 16 17 18 19 20 21 22 23 24 25 26 27 28 29 30 31 32 33 34 35 36 37 38 39 40 41 42 43 44 45 46 47 48 49 50
000
ASUS43 KDTX 220510
RWRMI
MICHIGAN HOURLY REGIONAL WEATHER ROUNDUP
NATIONAL WEATHER SERVICE DETROIT/PONTIAC MI
1200 AM EST SAT NOV 22 2014

NOTE: "FAIR" INDICATES FEW OR NO CLOUDS BELOW 12,000 FEET WITH NO
SIGNIFICANT WEATHER AND/OR OBSTRUCTION TO VISIBILITY.

MIZ047>049-052>055-059>063-066>070-074>076-081>083-220600-
SOUTHEAST LOWER MICHIGAN

CITY           SKY/WX    TMP DP  RH WIND       PRES   REMARKS
ADRIAN         CLEAR     19  11  70 S7        30.33F WCI  10
ALMA           PTCLDY    21  14  72 S8        30.25F WCI  12
ANN ARBOR      FAIR      17   9  70 SW7       30.32F WCI   8
BAD AXE        CLOUDY    24  14  66 SW12      30.25F WCI  13
CARO           MOCLDY    23  14  68 S13       30.26F WCI  11
DETROIT CITY   PTCLDY    26  13  57 SW13      30.35F WCI  15
DETROIT        PTCLDY    19  11  70 S7        30.35F WCI  10
FLINT          PTCLDY    24  11  57 S12       30.28F WCI  13
GROSSE ILE     PTCLDY    25  16  68 S13       30.34F WCI  13
HILLSDALE      PTCLDY    22  11  63 S9G17     30.27F WCI  11
HOWELL         PTCLDY    19  11  70 S9        30.28F WCI   9

CITY           SKY/WX    TMP DP  RH WIND       PRES   REMARKS
JACKSON        PTCLDY    23  10  57 S13       30.28F WCI  11
LAMBERTVILLE   PTCLDY    21  12  68 S6        30.35F WCI  14
LANSING        PTCLDY    21  11  65 S10       30.27F WCI  10
LAPEER         FAIR      21  12  68 SW12      30.28F WCI   9
MASON          PTCLDY    19  11  73 S5        30.27F WCI  12
MONROE         PTCLDY    19  12  73 S6        30.33F WCI  11
MT. CLEMENS    PTCLDY    18  13  80 S7        30.31F WCI   9
PONTIAC        PTCLDY    20  10  65 S9        30.28F WCI   9
PORT HOPE        N/A     25  12  58 SW10G18   30.22F WCI  15
PORT HURON     PTCLDY    23  16  74 S9        30.32F WCI  13
TRI CITIES     MOCLDY    25  13  60 S16G23    30.25F WCI  12
TROY           PTCLDY    23  12  63 S6        30.34S WCI  16
SAGINAW HB     MOCLDY    25  14  63 S16G22    30.26F WCI  12
$$
MIZ043>046-050>051-056>058-064>065-071>073-077>080-220600-
SOUTHWEST LOWER MICHIGAN

CITY           SKY/WX    TMP DP  RH WIND       PRES   REMARKS
BATTLE CREEK   PTCLDY    25  12  58 S15       30.25F WCI  13
BENTON HARBOR  CLOUDY    29  12  49 S9        30.24F WCI  20
BIG RAPIDS     MOCLDY    25  14  63 S7        30.17F WCI  17
COLDWATER      PTCLDY    26  12  55 S9G16     30.27F WCI  17
FREMONT        FAIR      25  11  57 S9        30.18F WCI  15
HOLLAND        CLOUDY    28  14  55 S13       30.22F WCI  17
GRAND RAPIDS   MOCLDY    24  13  62 S14       30.22F WCI  12
IONIA          FAIR      21  13  71 S7        30.23F WCI  13
KALAMAZOO      MOCLDY    24  14  65 S15       30.25F WCI  11
LUDINGTON      MOCLDY    29  22  73 SE9       30.13F WCI  21
MARSHALL       PTCLDY    22  12  65 S6        30.26F WCI  14
MOUNT PLEASANT PTCLDY    24  13  64 S7        30.22F WCI  15
MUSKEGON       CLOUDY    27  14  58 SE9       30.20F WCI  18
SOUTH HAVEN    CLOUDY    29  15  55 S8        30.23F WCI  21
$$
MIZ016>042-220600-
NORTHERN LOWER MICHIGAN

CITY           SKY/WX    TMP DP  RH WIND       PRES   REMARKS
ALPENA         CLOUDY    25  15  66 S12G23    30.11F WCI  14
BEAVER ISLAND  PTCLDY    36  30  79 SW16G23   29.99F WCI  26
BELLAIRE       MOCLDY    29  20  68 S13       30.09F WCI  19
CADILLAC       CLOUDY    24  17  73 S14       30.10F WCI  12
CHARLEVOIX     PTCLDY    30  22  73 S13G22    30.07F WCI  20
FRANKFORT      MOCLDY    31  23  72 S9G20     30.09F WCI  23
GAYLORD        MOCLDY    24  16  71 SW20G28   30.05F WCI  10
GRAYLING       MOCLDY    26  15  64 SW13G18   30.11F WCI  15
HARBOR SPRINGS PTCLDY    29  21  71 SW13G25   30.04F WCI  19
HOUGHTON LAKE  MOCLDY    24  12  60 S14       30.14F WCI  12
MANISTEE       MOCLDY    28  18  64 S9G17     30.12F WCI  20
OSCODA         CLOUDY    26  16  66 SW17G24   30.17F WCI  13
PELLSTON       PTCLDY    29  19  66 S10G24    30.03F WCI  20
ROGERS CITY    MOCLDY    26  19  73 SW14G24   30.07F WCI  15
TRAVERSE CITY  CLOUDY    30  18  60 SW13G26   30.07F WCI  20
$$
MIZ007>008-015-220600-
EASTERN UPPER MICHIGAN

CITY           SKY/WX    TMP DP  RH WIND       PRES   REMARKS
KINROSS        CLOUDY    28  27  93 S13G24    29.97F WCI  18
MACKINAC ISLAN PTCLDY    30  23  74 SW15G25   30.00F WCI  19
NEWBERRY       CLEAR     32  26  77 S26       29.91F HAZE    WCI  18
S. S. MARIE    CLOUDY    28  21  75 S8        29.96F WCI  20
MUNISING         N/A     30  10  43 S21G29    29.87F WCI  17
$$
MIZ004>006-011>014-085-220600-
CENTRAL UPPER MICHIGAN

CITY           SKY/WX    TMP DP  RH WIND       PRES   REMARKS
MANISTIQUE     MOCLDY    32  19  58 SW17G26   29.96F WCI  21
ESCANABA       MOCLDY    28  10  47 SW16G23   29.95F WCI  17
MENOMINEE      CLOUDY    30  12  47 SW17G29   29.98F WCI  18
SAWYER-GWINN   MOCLDY    24  13  63 S21       29.85F WCI   9
$$
MIZ001>003-009>011-084-220600-
WESTERN UPPER MICHIGAN

CITY           SKY/WX    TMP DP  RH WIND       PRES   REMARKS
IRON MOUNTAIN  CLOUDY    25  11  55 S14       29.90F WCI  13
HOUGHTON       MOCLDY    30  17  58 SW14G22   29.73F WCI  19
COPPER HARBOR    N/A     29  15  56 SW10G18   29.73F WCI  20
IRONWOOD       MOCLDY    28  21  74 SW18G24   29.75F WCI  16
$$

ABBREVIATIONS USED IN REMARKS
   TC - TEMPERATURE IN CELSIUS
  WCI - WIND CHILL INDEX
   HX - HEAT INDEX
  VSB - VISIBILITY




USA.gov is the U.S. government's official web portal to all federal, state and local government web resources and services.